Year,Month,Day,Hour,Minute,Value (Times are PST for temperature in C)
2014,07,12,00,00,18.60
2014,07,12,00,01,18.60
2014,07,12,00,02,18.60
2014,07,12,00,03,18.70
2014,07,12,00,04,18.70
2014,07,12,00,05,18.70
2014,07,12,00,06,18.70
2014,07,12,00,07,18.70
2014,07,12,00,08,18.70
2014,07,12,00,09,18.70
2014,07,12,00,10,18.70
2014,07,12,00,11,18.70
2014,07,12,00,12,18.70
2014,07,12,00,13,18.70
2014,07,12,00,14,18.70
2014,07,12,00,15,18.70
2014,07,12,00,16,18.70
2014,07,12,00,17,18.70
2014,07,12,00,18,18.60
2014,07,12,00,19,18.60
2014,07,12,00,20,18.60
2014,07,12,00,21,18.50
2014,07,12,00,22,18.50
2014,07,12,00,23,18.40
2014,07,12,00,24,18.40
2014,07,12,00,25,18.40
2014,07,12,00,26,18.30
2014,07,12,00,27,18.30
2014,07,12,00,28,18.20
2014,07,12,00,29,18.20
2014,07,12,00,30,18.20
2014,07,12,00,31,18.10
2014,07,12,00,32,18.00
2014,07,12,00,33,17.90
2014,07,12,00,34,17.90
2014,07,12,00,35,17.90
2014,07,12,00,36,17.80
2014,07,12,00,37,17.80
2014,07,12,00,38,17.80
2014,07,12,00,39,17.70
2014,07,12,00,40,17.70
2014,07,12,00,41,17.70
2014,07,12,00,42,17.70
2014,07,12,00,43,17.60
2014,07,12,00,44,17.60
2014,07,12,00,45,17.60
2014,07,12,00,46,17.60
2014,07,12,00,47,17.60
2014,07,12,00,48,17.60
2014,07,12,00,49,17.60
2014,07,12,00,50,17.60
2014,07,12,00,51,17.60
2014,07,12,00,52,17.50
2014,07,12,00,53,17.50
2014,07,12,00,54,17.50
2014,07,12,00,55,17.50
2014,07,12,00,56,17.50
2014,07,12,00,57,17.50
2014,07,12,00,58,17.60
2014,07,12,00,59,17.60
2014,07,12,01,00,17.60
2014,07,12,01,01,17.60
2014,07,12,01,02,17.70
2014,07,12,01,03,17.70
2014,07,12,01,04,17.70
2014,07,12,01,05,17.80
2014,07,12,01,06,17.80
2014,07,12,01,07,17.80
2014,07,12,01,08,17.80
2014,07,12,01,09,17.90
2014,07,12,01,10,17.90
2014,07,12,01,11,17.90
2014,07,12,01,12,17.90
2014,07,12,01,13,17.90
2014,07,12,01,14,17.90
2014,07,12,01,15,17.90
2014,07,12,01,16,18.00
2014,07,12,01,17,18.10
2014,07,12,01,18,18.10
2014,07,12,01,19,18.10
2014,07,12,01,20,18.10
2014,07,12,01,21,18.10
2014,07,12,01,22,18.10
2014,07,12,01,23,18.10
2014,07,12,01,24,18.10
2014,07,12,01,25,18.10
2014,07,12,01,26,18.00
2014,07,12,01,27,17.90
2014,07,12,01,28,17.90
2014,07,12,01,29,17.90
2014,07,12,01,30,17.90
2014,07,12,01,31,17.90
2014,07,12,01,32,17.90
2014,07,12,01,33,17.90
2014,07,12,01,34,17.90
2014,07,12,01,35,18.00
2014,07,12,01,36,18.10
2014,07,12,01,37,18.10
2014,07,12,01,38,18.10
2014,07,12,01,39,18.10
2014,07,12,01,40,18.20
2014,07,12,01,41,18.20
2014,07,12,01,42,18.20
2014,07,12,01,43,18.20
2014,07,12,01,44,18.20
2014,07,12,01,45,18.20
2014,07,12,01,46,18.30
2014,07,12,01,47,18.30
2014,07,12,01,48,18.30
2014,07,12,01,49,18.30
2014,07,12,01,50,18.30
2014,07,12,01,51,18.30
2014,07,12,01,52,18.40
2014,07,12,01,53,18.40
2014,07,12,01,54,18.40
2014,07,12,01,55,18.40
2014,07,12,01,56,18.40
2014,07,12,01,57,18.40
2014,07,12,01,58,18.40
2014,07,12,01,59,18.50
2014,07,12,02,00,18.50
2014,07,12,02,01,18.50
2014,07,12,02,02,18.50
2014,07,12,02,03,18.50
2014,07,12,02,04,18.50
2014,07,12,02,05,18.50
2014,07,12,02,06,18.50
2014,07,12,02,07,18.50
2014,07,12,02,08,18.40
2014,07,12,02,09,18.40
2014,07,12,02,10,18.30
2014,07,12,02,11,18.30
2014,07,12,02,12,18.20
2014,07,12,02,13,18.20
2014,07,12,02,14,18.20
2014,07,12,02,15,18.10
2014,07,12,02,16,18.10
2014,07,12,02,17,18.00
2014,07,12,02,18,17.90
2014,07,12,02,19,17.90
2014,07,12,02,20,17.90
2014,07,12,02,21,17.90
2014,07,12,02,22,17.80
2014,07,12,02,23,17.80
2014,07,12,02,24,17.80
2014,07,12,02,25,17.70
2014,07,12,02,26,17.70
2014,07,12,02,27,17.70
2014,07,12,02,28,17.70
2014,07,12,02,29,17.80
2014,07,12,02,30,17.80
2014,07,12,02,31,17.80
2014,07,12,02,32,17.90
2014,07,12,02,33,17.90
2014,07,12,02,34,18.00
2014,07,12,02,35,18.10
2014,07,12,02,36,18.20
2014,07,12,02,37,18.20
2014,07,12,02,38,18.30
2014,07,12,02,39,18.30
2014,07,12,02,40,18.40
2014,07,12,02,41,18.40
2014,07,12,02,42,18.50
2014,07,12,02,43,18.50
2014,07,12,02,44,18.60
2014,07,12,02,45,18.60
2014,07,12,02,46,18.60
2014,07,12,02,47,18.60
2014,07,12,02,48,18.70
2014,07,12,02,49,18.70
2014,07,12,02,50,18.70
2014,07,12,02,51,18.70
2014,07,12,02,52,18.80
2014,07,12,02,53,18.80
2014,07,12,02,54,18.80
2014,07,12,02,55,18.80
2014,07,12,02,56,18.80
2014,07,12,02,57,18.80
2014,07,12,02,58,18.80
2014,07,12,02,59,18.80
2014,07,12,03,00,18.80
2014,07,12,03,01,18.80
2014,07,12,03,02,18.80
2014,07,12,03,03,18.70
2014,07,12,03,04,18.70
2014,07,12,03,05,18.60
2014,07,12,03,06,18.50
2014,07,12,03,07,18.40
2014,07,12,03,08,18.30
2014,07,12,03,09,18.20
2014,07,12,03,10,18.10
2014,07,12,03,11,18.00
2014,07,12,03,12,17.90
2014,07,12,03,13,17.80
2014,07,12,03,14,17.70
2014,07,12,03,15,17.70
2014,07,12,03,16,17.60
2014,07,12,03,17,17.50
2014,07,12,03,18,17.50
2014,07,12,03,19,17.40
2014,07,12,03,20,17.40
2014,07,12,03,21,17.40
2014,07,12,03,22,17.40
2014,07,12,03,23,17.40
2014,07,12,03,24,17.50
2014,07,12,03,25,17.50
2014,07,12,03,26,17.50
2014,07,12,03,27,17.50
2014,07,12,03,28,17.50
2014,07,12,03,29,17.50
2014,07,12,03,30,17.40
2014,07,12,03,31,17.40
2014,07,12,03,32,17.40
2014,07,12,03,33,17.40
2014,07,12,03,34,17.30
2014,07,12,03,35,17.30
2014,07,12,03,36,17.30
2014,07,12,03,37,17.30
2014,07,12,03,38,17.30
2014,07,12,03,39,17.40
2014,07,12,03,40,17.40
2014,07,12,03,41,17.40
2014,07,12,03,42,17.40
2014,07,12,03,43,17.40
2014,07,12,03,44,17.40
2014,07,12,03,45,17.40
2014,07,12,03,46,17.40
2014,07,12,03,47,17.40
2014,07,12,03,48,17.40
2014,07,12,03,49,17.40
2014,07,12,03,50,17.30
2014,07,12,03,51,17.30
2014,07,12,03,52,17.30
2014,07,12,03,53,17.30
2014,07,12,03,54,17.30
2014,07,12,03,55,17.30
2014,07,12,03,56,17.20
2014,07,12,03,57,17.20
2014,07,12,03,58,17.10
2014,07,12,03,59,17.10
2014,07,12,04,00,17.10
2014,07,12,04,01,17.00
2014,07,12,04,02,17.00
2014,07,12,04,03,17.00
2014,07,12,04,04,16.90
2014,07,12,04,05,16.90
2014,07,12,04,06,16.90
2014,07,12,04,07,16.80
2014,07,12,04,08,16.80
2014,07,12,04,09,16.80
2014,07,12,04,10,16.70
2014,07,12,04,11,16.70
2014,07,12,04,12,16.70
2014,07,12,04,13,16.70
2014,07,12,04,14,16.60
2014,07,12,04,15,16.60
2014,07,12,04,16,16.60
2014,07,12,04,17,16.60
2014,07,12,04,18,16.40
2014,07,12,04,19,16.40
2014,07,12,04,20,16.40
2014,07,12,04,21,16.40
2014,07,12,04,22,16.40
2014,07,12,04,23,16.30
2014,07,12,04,24,16.30
2014,07,12,04,25,16.30
2014,07,12,04,26,16.20
2014,07,12,04,27,16.20
2014,07,12,04,28,16.20
2014,07,12,04,29,16.20
2014,07,12,04,30,16.10
2014,07,12,04,31,16.10
2014,07,12,04,32,16.10
2014,07,12,04,33,16.10
2014,07,12,04,34,16.10
2014,07,12,04,35,16.10
2014,07,12,04,36,16.10
2014,07,12,04,37,16.10
2014,07,12,04,38,16.10
2014,07,12,04,39,16.10
2014,07,12,04,40,16.10
2014,07,12,04,41,16.10
2014,07,12,04,42,16.10
2014,07,12,04,43,16.00
2014,07,12,04,44,15.90
2014,07,12,04,45,15.90
2014,07,12,04,46,15.90
2014,07,12,04,47,15.90
2014,07,12,04,48,15.90
2014,07,12,04,49,15.90
2014,07,12,04,50,15.90
2014,07,12,04,51,15.90
2014,07,12,04,52,15.90
2014,07,12,04,53,15.90
2014,07,12,04,54,15.90
2014,07,12,04,55,15.90
2014,07,12,04,56,15.90
2014,07,12,04,57,16.00
2014,07,12,04,58,16.10
2014,07,12,04,59,16.10
2014,07,12,05,00,16.10
2014,07,12,05,01,16.10
2014,07,12,05,02,16.10
2014,07,12,05,03,16.10
2014,07,12,05,04,16.10
2014,07,12,05,05,16.10
2014,07,12,05,06,16.10
2014,07,12,05,07,16.10
2014,07,12,05,08,16.10
2014,07,12,05,09,16.10
2014,07,12,05,10,16.10
2014,07,12,05,11,16.10
2014,07,12,05,12,16.10
2014,07,12,05,13,16.10
2014,07,12,05,14,16.10
2014,07,12,05,15,16.10
2014,07,12,05,16,16.10
2014,07,12,05,17,16.10
2014,07,12,05,18,16.20
2014,07,12,05,19,16.20
2014,07,12,05,20,16.20
2014,07,12,05,21,16.20
2014,07,12,05,22,16.20
2014,07,12,05,23,16.20
2014,07,12,05,24,16.20
2014,07,12,05,25,16.20
2014,07,12,05,26,16.20
2014,07,12,05,27,16.20
2014,07,12,05,28,16.20
2014,07,12,05,29,16.20
2014,07,12,05,30,16.20
2014,07,12,05,31,16.20
2014,07,12,05,32,16.30
2014,07,12,05,33,16.30
2014,07,12,05,34,16.30
2014,07,12,05,35,16.30
2014,07,12,05,36,16.30
2014,07,12,05,37,16.30
2014,07,12,05,38,16.30
2014,07,12,05,39,16.30
2014,07,12,05,40,16.30
2014,07,12,05,41,16.30
2014,07,12,05,42,16.20
2014,07,12,05,43,16.20
2014,07,12,05,44,16.20
2014,07,12,05,45,16.20
2014,07,12,05,46,16.20
2014,07,12,05,47,16.10
2014,07,12,05,48,16.10
2014,07,12,05,49,16.10
2014,07,12,05,50,16.10
2014,07,12,05,51,16.10
2014,07,12,05,52,16.10
2014,07,12,05,53,16.10
2014,07,12,05,54,16.00
2014,07,12,05,55,15.90
2014,07,12,05,56,15.90
2014,07,12,05,57,15.90
2014,07,12,05,58,15.90
2014,07,12,05,59,15.80
2014,07,12,06,00,15.80
2014,07,12,06,01,15.80
2014,07,12,06,02,15.80
2014,07,12,06,03,15.80
2014,07,12,06,04,15.80
2014,07,12,06,05,15.80
2014,07,12,06,06,15.80
2014,07,12,06,07,15.80
2014,07,12,06,08,15.80
2014,07,12,06,09,15.80
2014,07,12,06,10,15.80
2014,07,12,06,11,15.80
2014,07,12,06,12,15.80
2014,07,12,06,13,15.80
2014,07,12,06,14,15.80
2014,07,12,06,15,15.80
2014,07,12,06,16,15.80
2014,07,12,06,17,15.80
2014,07,12,06,18,15.80
2014,07,12,06,19,15.80
2014,07,12,06,20,15.80
2014,07,12,06,21,15.80
2014,07,12,06,22,15.80
2014,07,12,06,23,15.80
2014,07,12,06,24,15.80
2014,07,12,06,25,15.90
2014,07,12,06,26,15.90
2014,07,12,06,27,15.90
2014,07,12,06,28,15.90
2014,07,12,06,29,15.90
2014,07,12,06,30,15.90
2014,07,12,06,31,15.90
2014,07,12,06,32,15.90
2014,07,12,06,33,16.00
2014,07,12,06,34,16.10
2014,07,12,06,35,16.10
2014,07,12,06,36,16.10
2014,07,12,06,37,16.20
2014,07,12,06,38,16.30
2014,07,12,06,39,16.40
2014,07,12,06,40,16.50
2014,07,12,06,41,16.60
2014,07,12,06,42,16.70
2014,07,12,06,43,16.70
2014,07,12,06,44,16.70
2014,07,12,06,45,16.80
2014,07,12,06,46,16.90
2014,07,12,06,47,16.90
2014,07,12,06,48,17.00
2014,07,12,06,49,17.10
2014,07,12,06,50,17.10
2014,07,12,06,51,17.20
2014,07,12,06,52,17.30
2014,07,12,06,53,17.30
2014,07,12,06,54,17.30
2014,07,12,06,55,17.40
2014,07,12,06,56,17.40
2014,07,12,06,57,17.50
2014,07,12,06,58,17.50
2014,07,12,06,59,17.60
2014,07,12,07,00,17.60
2014,07,12,07,01,17.60
2014,07,12,07,02,17.70
2014,07,12,07,03,17.70
2014,07,12,07,04,17.80
2014,07,12,07,05,17.80
2014,07,12,07,06,17.80
2014,07,12,07,07,17.90
2014,07,12,07,08,17.90
2014,07,12,07,09,17.90
2014,07,12,07,10,17.90
2014,07,12,07,11,18.00
2014,07,12,07,12,18.10
2014,07,12,07,13,18.10
2014,07,12,07,14,18.10
2014,07,12,07,15,18.20
2014,07,12,07,16,18.20
2014,07,12,07,17,18.20
2014,07,12,07,18,18.20
2014,07,12,07,19,18.20
2014,07,12,07,20,18.20
2014,07,12,07,21,18.30
2014,07,12,07,22,18.30
2014,07,12,07,23,18.30
2014,07,12,07,24,18.40
2014,07,12,07,25,18.40
2014,07,12,07,26,18.40
2014,07,12,07,27,18.50
2014,07,12,07,28,18.50
2014,07,12,07,29,18.50
2014,07,12,07,30,18.60
2014,07,12,07,31,18.60
2014,07,12,07,32,18.70
2014,07,12,07,33,18.80
2014,07,12,07,34,18.90
2014,07,12,07,35,19.00
2014,07,12,07,36,19.10
2014,07,12,07,37,19.10
2014,07,12,07,38,19.20
2014,07,12,07,39,19.40
2014,07,12,07,40,19.40
2014,07,12,07,41,19.50
2014,07,12,07,42,19.60
2014,07,12,07,43,19.60
2014,07,12,07,44,19.70
2014,07,12,07,45,19.80
2014,07,12,07,46,19.90
2014,07,12,07,47,19.90
2014,07,12,07,48,20.00
2014,07,12,07,49,20.10
2014,07,12,07,50,20.20
2014,07,12,07,51,20.20
2014,07,12,07,52,20.20
2014,07,12,07,53,20.20
2014,07,12,07,54,20.20
2014,07,12,07,55,20.20
2014,07,12,07,56,20.20
2014,07,12,07,57,20.20
2014,07,12,07,58,20.30
2014,07,12,07,59,20.30
2014,07,12,08,00,20.30
2014,07,12,08,01,20.40
2014,07,12,08,02,20.40
2014,07,12,08,03,20.50
2014,07,12,08,04,20.50
2014,07,12,08,05,20.60
2014,07,12,08,06,20.60
2014,07,12,08,07,20.60
2014,07,12,08,08,20.60
2014,07,12,08,09,20.70
2014,07,12,08,10,20.70
2014,07,12,08,11,20.70
2014,07,12,08,12,20.80
2014,07,12,08,13,20.80
2014,07,12,08,14,20.80
2014,07,12,08,15,20.80
2014,07,12,08,16,20.80
2014,07,12,08,17,20.80
2014,07,12,08,18,20.80
2014,07,12,08,19,20.90
2014,07,12,08,20,20.90
2014,07,12,08,21,20.90
2014,07,12,08,22,20.90
2014,07,12,08,23,21.00
2014,07,12,08,24,21.00
2014,07,12,08,25,21.10
2014,07,12,08,26,21.10
2014,07,12,08,27,21.20
2014,07,12,08,28,21.30
2014,07,12,08,29,21.30
2014,07,12,08,30,21.50
2014,07,12,08,31,21.60
2014,07,12,08,32,21.70
2014,07,12,08,33,21.90
2014,07,12,08,34,22.00
2014,07,12,08,35,22.10
2014,07,12,08,36,22.20
2014,07,12,08,37,22.40
2014,07,12,08,38,22.60
2014,07,12,08,39,22.70
2014,07,12,08,40,22.90
2014,07,12,08,41,23.00
2014,07,12,08,42,23.10
2014,07,12,08,43,23.20
2014,07,12,08,44,23.30
2014,07,12,08,45,23.40
2014,07,12,08,46,23.50
2014,07,12,08,47,23.60
2014,07,12,08,48,23.70
2014,07,12,08,49,23.70
2014,07,12,08,50,23.70
2014,07,12,08,51,23.80
2014,07,12,08,52,23.90
2014,07,12,08,53,24.00
2014,07,12,08,54,24.10
2014,07,12,08,55,24.10
2014,07,12,08,56,24.10
2014,07,12,08,57,24.20
2014,07,12,08,58,24.30
2014,07,12,08,59,24.40
2014,07,12,09,00,24.50
2014,07,12,09,01,24.50
2014,07,12,09,02,24.60
2014,07,12,09,03,24.70
2014,07,12,09,04,24.70
2014,07,12,09,05,24.80
2014,07,12,09,06,24.80
2014,07,12,09,07,24.80
2014,07,12,09,08,24.90
2014,07,12,09,09,24.90
2014,07,12,09,10,24.90
2014,07,12,09,11,25.00
2014,07,12,09,12,25.00
2014,07,12,09,13,25.10
2014,07,12,09,14,25.20
2014,07,12,09,15,25.30
2014,07,12,09,16,25.30
2014,07,12,09,17,25.40
2014,07,12,09,18,25.50
2014,07,12,09,19,25.50
2014,07,12,09,20,25.60
2014,07,12,09,21,25.70
2014,07,12,09,22,25.70
2014,07,12,09,23,25.80
2014,07,12,09,24,25.80
2014,07,12,09,25,25.90
2014,07,12,09,26,25.90
2014,07,12,09,27,25.80
2014,07,12,09,28,25.80
2014,07,12,09,29,25.80
2014,07,12,09,30,25.80
2014,07,12,09,31,25.80
2014,07,12,09,32,25.80
2014,07,12,09,33,25.80
2014,07,12,09,34,25.80
2014,07,12,09,35,25.80
2014,07,12,09,36,25.90
2014,07,12,09,37,25.90
2014,07,12,09,38,26.00
2014,07,12,09,39,26.10
2014,07,12,09,40,26.10
2014,07,12,09,41,26.20
2014,07,12,09,42,26.20
2014,07,12,09,43,26.30
2014,07,12,09,44,26.30
2014,07,12,09,45,26.30
2014,07,12,09,46,26.30
2014,07,12,09,47,26.40
2014,07,12,09,48,26.40
2014,07,12,09,49,26.40
2014,07,12,09,50,26.50
2014,07,12,09,51,26.60
2014,07,12,09,52,26.60
2014,07,12,09,53,26.60
2014,07,12,09,54,26.60
2014,07,12,09,55,26.60
2014,07,12,09,56,26.60
2014,07,12,09,57,26.60
2014,07,12,09,58,26.70
2014,07,12,09,59,26.70
2014,07,12,10,00,26.60
2014,07,12,10,01,26.60
2014,07,12,10,02,26.60
2014,07,12,10,03,26.60
2014,07,12,10,04,26.70
2014,07,12,10,05,26.80
2014,07,12,10,06,26.80
2014,07,12,10,07,26.80
2014,07,12,10,08,26.90
2014,07,12,10,09,27.00
2014,07,12,10,10,27.10
2014,07,12,10,11,27.20
2014,07,12,10,12,27.30
2014,07,12,10,13,27.30
2014,07,12,10,14,27.30
2014,07,12,10,15,27.30
2014,07,12,10,16,27.40
2014,07,12,10,17,27.40
2014,07,12,10,18,27.40
2014,07,12,10,19,27.40
2014,07,12,10,20,27.40
2014,07,12,10,21,27.30
2014,07,12,10,22,27.30
2014,07,12,10,23,27.30
2014,07,12,10,24,27.40
2014,07,12,10,25,27.40
2014,07,12,10,26,27.40
2014,07,12,10,27,27.50
2014,07,12,10,28,27.60
2014,07,12,10,29,27.60
2014,07,12,10,30,27.60
2014,07,12,10,31,27.60
2014,07,12,10,32,27.50
2014,07,12,10,33,27.40
2014,07,12,10,34,27.40
2014,07,12,10,35,27.40
2014,07,12,10,36,27.30
2014,07,12,10,37,27.30
2014,07,12,10,38,27.20
2014,07,12,10,39,27.20
2014,07,12,10,40,27.20
2014,07,12,10,41,27.20
2014,07,12,10,42,27.20
2014,07,12,10,43,27.20
2014,07,12,10,44,27.30
2014,07,12,10,45,27.30
2014,07,12,10,46,27.30
2014,07,12,10,47,27.30
2014,07,12,10,48,27.40
2014,07,12,10,49,27.40
2014,07,12,10,50,27.50
2014,07,12,10,51,27.40
2014,07,12,10,52,27.40
2014,07,12,10,53,27.50
2014,07,12,10,54,27.60
2014,07,12,10,55,27.60
2014,07,12,10,56,27.70
2014,07,12,10,57,27.80
2014,07,12,10,58,27.80
2014,07,12,10,59,27.80
2014,07,12,11,00,27.80
2014,07,12,11,01,27.80
2014,07,12,11,02,28.00
2014,07,12,11,03,28.10
2014,07,12,11,04,28.10
2014,07,12,11,05,28.10
2014,07,12,11,06,28.10
2014,07,12,11,07,28.20
2014,07,12,11,08,28.20
2014,07,12,11,09,28.20
2014,07,12,11,10,28.20
2014,07,12,11,11,28.30
2014,07,12,11,12,28.30
2014,07,12,11,13,28.30
2014,07,12,11,14,28.40
2014,07,12,11,15,28.50
2014,07,12,11,16,28.60
2014,07,12,11,17,28.50
2014,07,12,11,18,28.40
2014,07,12,11,19,28.30
2014,07,12,11,20,28.20
2014,07,12,11,21,28.20
2014,07,12,11,22,28.20
2014,07,12,11,23,28.30
2014,07,12,11,24,28.40
2014,07,12,11,25,28.50
2014,07,12,11,26,28.60
2014,07,12,11,27,28.60
2014,07,12,11,28,28.70
2014,07,12,11,29,28.70
2014,07,12,11,30,28.60
2014,07,12,11,31,28.60
2014,07,12,11,32,28.60
2014,07,12,11,33,28.60
2014,07,12,11,34,28.60
2014,07,12,11,35,28.60
2014,07,12,11,36,28.60
2014,07,12,11,37,28.60
2014,07,12,11,38,28.70
2014,07,12,11,39,28.70
2014,07,12,11,40,28.80
2014,07,12,11,41,28.80
2014,07,12,11,42,28.90
2014,07,12,11,43,28.90
2014,07,12,11,44,28.90
2014,07,12,11,45,28.90
2014,07,12,11,46,28.90
2014,07,12,11,47,28.90
2014,07,12,11,48,28.90
2014,07,12,11,49,28.80
2014,07,12,11,50,28.80
2014,07,12,11,51,28.80
2014,07,12,11,52,28.70
2014,07,12,11,53,28.60
2014,07,12,11,54,28.50
2014,07,12,11,55,28.40
2014,07,12,11,56,28.40
2014,07,12,11,57,28.40
2014,07,12,11,58,28.40
2014,07,12,11,59,28.40
2014,07,12,12,00,28.30
2014,07,12,12,01,28.30
2014,07,12,12,02,28.40
2014,07,12,12,03,28.50
2014,07,12,12,04,28.60
2014,07,12,12,05,28.80
2014,07,12,12,06,28.80
2014,07,12,12,07,28.90
2014,07,12,12,08,28.90
2014,07,12,12,09,29.00
2014,07,12,12,10,29.10
2014,07,12,12,11,29.20
2014,07,12,12,12,29.30
2014,07,12,12,13,29.50
2014,07,12,12,14,29.60
2014,07,12,12,15,29.60
2014,07,12,12,16,29.60
2014,07,12,12,17,29.60
2014,07,12,12,18,29.50
2014,07,12,12,19,29.50
2014,07,12,12,20,29.50
2014,07,12,12,21,29.50
2014,07,12,12,22,29.60
2014,07,12,12,23,29.70
2014,07,12,12,24,29.80
2014,07,12,12,25,29.90
2014,07,12,12,26,29.90
2014,07,12,12,27,30.00
2014,07,12,12,28,30.00
2014,07,12,12,29,29.90
2014,07,12,12,30,29.90
2014,07,12,12,31,29.80
2014,07,12,12,32,29.80
2014,07,12,12,33,29.70
2014,07,12,12,34,29.60
2014,07,12,12,35,29.50
2014,07,12,12,36,29.30
2014,07,12,12,37,29.20
2014,07,12,12,38,29.10
2014,07,12,12,39,28.90
2014,07,12,12,40,28.80
2014,07,12,12,41,28.80
2014,07,12,12,42,28.80
2014,07,12,12,43,28.80
2014,07,12,12,44,28.80
2014,07,12,12,45,28.90
2014,07,12,12,46,28.90
2014,07,12,12,47,28.90
2014,07,12,12,48,28.90
2014,07,12,12,49,28.90
2014,07,12,12,50,29.00
2014,07,12,12,51,29.10
2014,07,12,12,52,29.20
2014,07,12,12,53,29.30
2014,07,12,12,54,29.40
2014,07,12,12,55,29.40
2014,07,12,12,56,29.50
2014,07,12,12,57,29.60
2014,07,12,12,58,29.60
2014,07,12,12,59,29.70
2014,07,12,13,00,29.70
2014,07,12,13,01,29.80
2014,07,12,13,02,29.80
2014,07,12,13,03,29.90
2014,07,12,13,04,29.90
2014,07,12,13,05,30.10
2014,07,12,13,06,30.10
2014,07,12,13,07,30.10
2014,07,12,13,08,30.20
2014,07,12,13,09,30.20
2014,07,12,13,10,30.30
2014,07,12,13,11,30.40
2014,07,12,13,12,30.40
2014,07,12,13,13,30.50
2014,07,12,13,14,30.60
2014,07,12,13,15,30.60
2014,07,12,13,16,30.70
2014,07,12,13,17,30.70
2014,07,12,13,18,30.80
2014,07,12,13,19,30.90
2014,07,12,13,20,31.00
2014,07,12,13,21,31.10
2014,07,12,13,22,31.10
2014,07,12,13,23,31.20
2014,07,12,13,24,31.30
2014,07,12,13,25,31.30
2014,07,12,13,26,31.40
2014,07,12,13,27,31.40
2014,07,12,13,28,31.40
2014,07,12,13,29,31.40
2014,07,12,13,30,31.40
2014,07,12,13,31,31.40
2014,07,12,13,32,31.40
2014,07,12,13,33,31.40
2014,07,12,13,34,31.40
2014,07,12,13,35,31.20
2014,07,12,13,36,31.20
2014,07,12,13,37,31.20
2014,07,12,13,38,31.10
2014,07,12,13,39,31.10
2014,07,12,13,40,31.10
2014,07,12,13,41,31.10
2014,07,12,13,42,31.10
2014,07,12,13,43,31.10
2014,07,12,13,44,31.10
2014,07,12,13,45,31.10
2014,07,12,13,46,31.10
2014,07,12,13,47,31.10
2014,07,12,13,48,31.20
2014,07,12,13,49,31.20
2014,07,12,13,50,31.30
2014,07,12,13,51,31.30
2014,07,12,13,52,31.30
2014,07,12,13,53,31.10
2014,07,12,13,54,30.90
2014,07,12,13,55,30.80
2014,07,12,13,56,30.80
2014,07,12,13,57,30.80
2014,07,12,13,58,30.90
2014,07,12,13,59,30.90
2014,07,12,14,00,30.80
2014,07,12,14,01,30.80
2014,07,12,14,02,30.80
2014,07,12,14,03,30.80
2014,07,12,14,04,30.70
2014,07,12,14,05,30.70
2014,07,12,14,06,30.60
2014,07,12,14,07,30.60
2014,07,12,14,08,30.60
2014,07,12,14,09,30.60
2014,07,12,14,10,30.70
2014,07,12,14,11,30.90
2014,07,12,14,12,30.90
2014,07,12,14,13,31.00
2014,07,12,14,14,31.00
2014,07,12,14,15,31.10
2014,07,12,14,16,31.10
2014,07,12,14,17,31.10
2014,07,12,14,18,31.10
2014,07,12,14,19,31.20
2014,07,12,14,20,31.20
2014,07,12,14,21,31.20
2014,07,12,14,22,31.20
2014,07,12,14,23,31.20
2014,07,12,14,24,31.20
2014,07,12,14,25,31.20
2014,07,12,14,26,31.20
2014,07,12,14,27,31.10
2014,07,12,14,28,31.10
2014,07,12,14,29,31.10
2014,07,12,14,30,31.00
2014,07,12,14,31,31.00
2014,07,12,14,32,31.10
2014,07,12,14,33,31.20
2014,07,12,14,34,31.20
2014,07,12,14,35,31.30
2014,07,12,14,36,31.30
2014,07,12,14,37,31.40
2014,07,12,14,38,31.30
2014,07,12,14,39,31.30
2014,07,12,14,40,31.20
2014,07,12,14,41,31.10
2014,07,12,14,42,31.10
2014,07,12,14,43,31.20
2014,07,12,14,44,31.20
2014,07,12,14,45,31.30
2014,07,12,14,46,31.40
2014,07,12,14,47,31.50
2014,07,12,14,48,31.60
2014,07,12,14,49,31.60
2014,07,12,14,50,31.60
2014,07,12,14,51,31.50
2014,07,12,14,52,31.40
2014,07,12,14,53,31.30
2014,07,12,14,54,31.30
2014,07,12,14,55,31.30
2014,07,12,14,56,31.30
2014,07,12,14,57,31.40
2014,07,12,14,58,31.40
2014,07,12,14,59,31.50
2014,07,12,15,00,31.50
2014,07,12,15,01,31.40
2014,07,12,15,02,31.40
2014,07,12,15,03,31.20
2014,07,12,15,04,31.20
2014,07,12,15,05,31.10
2014,07,12,15,06,31.10
2014,07,12,15,07,31.10
2014,07,12,15,08,31.10
2014,07,12,15,09,31.10
2014,07,12,15,10,31.10
2014,07,12,15,11,31.10
2014,07,12,15,12,31.10
2014,07,12,15,13,31.10
2014,07,12,15,14,31.10
2014,07,12,15,15,31.10
2014,07,12,15,16,31.20
2014,07,12,15,17,31.20
2014,07,12,15,18,31.30
2014,07,12,15,19,31.30
2014,07,12,15,20,31.30
2014,07,12,15,21,31.20
2014,07,12,15,22,31.20
2014,07,12,15,23,31.20
2014,07,12,15,24,31.30
2014,07,12,15,25,31.30
2014,07,12,15,26,31.40
2014,07,12,15,27,31.40
2014,07,12,15,28,31.40
2014,07,12,15,29,31.40
2014,07,12,15,30,31.40
2014,07,12,15,31,31.30
2014,07,12,15,32,31.20
2014,07,12,15,33,31.30
2014,07,12,15,34,31.30
2014,07,12,15,35,31.30
2014,07,12,15,36,31.30
2014,07,12,15,37,31.20
2014,07,12,15,38,31.20
2014,07,12,15,39,31.20
2014,07,12,15,40,31.20
2014,07,12,15,41,31.10
2014,07,12,15,42,31.00
2014,07,12,15,43,30.90
2014,07,12,15,44,30.80
2014,07,12,15,45,30.80
2014,07,12,15,46,30.80
2014,07,12,15,47,30.80
2014,07,12,15,48,30.80
2014,07,12,15,49,30.90
2014,07,12,15,50,30.90
2014,07,12,15,51,31.00
2014,07,12,15,52,31.00
2014,07,12,15,53,31.10
2014,07,12,15,54,31.10
2014,07,12,15,55,31.20
2014,07,12,15,56,31.20
2014,07,12,15,57,31.20
2014,07,12,15,58,31.20
2014,07,12,15,59,31.20
2014,07,12,16,00,31.30
2014,07,12,16,01,31.30
2014,07,12,16,02,31.30
2014,07,12,16,03,31.30
2014,07,12,16,04,31.30
2014,07,12,16,05,31.30
2014,07,12,16,06,31.30
2014,07,12,16,07,31.20
2014,07,12,16,08,31.20
2014,07,12,16,09,31.20
2014,07,12,16,10,31.20
2014,07,12,16,11,31.10
2014,07,12,16,12,31.10
2014,07,12,16,13,31.00
2014,07,12,16,14,31.00
2014,07,12,16,15,30.90
2014,07,12,16,16,30.80
2014,07,12,16,17,30.70
2014,07,12,16,18,30.60
2014,07,12,16,19,30.40
2014,07,12,16,20,30.30
2014,07,12,16,21,30.30
2014,07,12,16,22,30.20
2014,07,12,16,23,30.10
2014,07,12,16,24,30.10
2014,07,12,16,25,30.00
2014,07,12,16,26,29.90
2014,07,12,16,27,29.90
2014,07,12,16,28,29.80
2014,07,12,16,29,29.80
2014,07,12,16,30,29.70
2014,07,12,16,31,29.60
2014,07,12,16,32,29.60
2014,07,12,16,33,29.60
2014,07,12,16,34,29.50
2014,07,12,16,35,29.50
2014,07,12,16,36,29.50
2014,07,12,16,37,29.40
2014,07,12,16,38,29.40
2014,07,12,16,39,29.40
2014,07,12,16,40,29.40
2014,07,12,16,41,29.40
2014,07,12,16,42,29.40
2014,07,12,16,43,29.40
2014,07,12,16,44,29.40
2014,07,12,16,45,29.40
2014,07,12,16,46,29.40
2014,07,12,16,47,29.40
2014,07,12,16,48,29.40
2014,07,12,16,49,29.40
2014,07,12,16,50,29.40
2014,07,12,16,51,29.40
2014,07,12,16,52,29.30
2014,07,12,16,53,29.30
2014,07,12,16,54,29.30
2014,07,12,16,55,29.30
2014,07,12,16,56,29.30
2014,07,12,16,57,29.30
2014,07,12,16,58,29.30
2014,07,12,16,59,29.30
2014,07,12,17,00,29.30
2014,07,12,17,01,29.30
2014,07,12,17,02,29.30
2014,07,12,17,03,29.30
2014,07,12,17,04,29.30
2014,07,12,17,05,29.30
2014,07,12,17,06,29.30
2014,07,12,17,07,29.30
2014,07,12,17,08,29.30
2014,07,12,17,09,29.30
2014,07,12,17,10,29.30
2014,07,12,17,11,29.30
2014,07,12,17,12,29.30
2014,07,12,17,13,29.30
2014,07,12,17,14,29.40
2014,07,12,17,15,29.40
2014,07,12,17,16,29.40
2014,07,12,17,17,29.40
2014,07,12,17,18,29.40
2014,07,12,17,19,29.40